cover

 

Get it on iTunes

Allen Watts

#Trackname / Key / BPM / Publish dateArtists, Remixers / Label
1 140 bpm, 6A / G minor, 2017-09-04, Trance,  1  8
2 138 bpm, 7A / D minor, 2017-08-25, Trance,  0  35
3 140 bpm, 6B / Bb major, 2017-08-21, Trance,  0  15
4 138 bpm, 9A / E minor, 2017-08-18, Trance,  2  15
5 140 bpm, 6B / Bb major, 2017-08-18, Trance,  0  15
6 138 bpm, 2A / Eb minor, 2017-08-18, Trance,  0  20
7 138 bpm, 2A / Eb minor, 2017-08-04, Trance,  1  35
8 138 bpm, 7A / D minor, 2017-07-17, Trance,  10  1
9 138 bpm, 9A / E minor, 2017-07-10, Trance,  3  2
10 138 bpm, 9A / E minor, 2017-07-10, Trance,  8  2
11 140 bpm, 6B / Bb major, 2017-07-07, Trance,  2  1
12 138 bpm, 2A / Eb minor, 2017-06-23, Trance,  1  4
13 138 bpm, 2A / Eb minor, 2017-06-23, Trance,  4  1
14 138 bpm, 2B / F# major, 2017-06-09, Trance,  0  20
15 138 bpm, 4B / Ab major, 2017-06-02, Trance,  0  40
16 138 bpm, 2A / Eb minor, 2017-05-12, Trance,  22  1
17 138 bpm, 7A / D minor, 2017-04-28, Trance,  1  25
18 138 bpm, 10B / D major, 2017-04-28, Trance,  0  15
19 140 bpm, 6A / G minor, 2017-04-28, Trance,  1  15
20 138 bpm, 2B / F# major, 2017-04-21, Trance,  1  40
21 138 bpm, 4B / Ab major, 2017-04-14, Trance,  1  20
22 138 bpm, 4B / Ab major, 2017-04-14, Trance,  0  40
23 138 bpm, 4B / Ab major, 2017-04-07, Trance,  2  25
24 138 bpm, 7A / D minor, 2017-03-17, Trance,  4  1
25 140 bpm, 6A / G minor, 2017-03-03, Trance,  22  1
26 140 bpm, 3A / Bb minor, 2017-03-03, Trance,  0  20
27 138 bpm, 10B / D major, 2017-02-14, Trance,  2  5
28 138 bpm, 4B / Ab major, 2017-01-30, Trance,  19  1
29 138 bpm, 7B / F major, 2017-01-20, Trance,  0  15
30 138 bpm, 4A / F minor, 2017-01-13, Trance,  1  20
31 140 bpm, 3A / Bb minor, 2017-01-09, Trance,  15  1
32 138 bpm, 1A / Ab minor, 2017-01-02, Trance,  0  23
33 138 bpm, 2B / F# major, 2016-12-16, House,  0  105
34 140 bpm, 4A / F minor, 2016-12-12, Trance,  1  51
35 138 bpm, 2B / F# major, 2016-12-09, Trance,  1  10
36 138 bpm, 2B / F# major, 2016-12-02, Trance,  0  39
37 138 bpm, 4A / F minor, 2016-12-02, Trance,  0  40
38 138 bpm, 1A / Ab minor, 2016-11-28, Trance,  2  2
39 138 bpm, 6A / G minor, 2016-11-28, Trance,  5  1
40 138 bpm, 7B / F major, 2016-11-21, Trance,  13  1
41 138 bpm, 2B / F# major, 2016-11-04, Trance,  0  40
42 138 bpm, 2B / F# major, 2016-11-04, Trance,  0  100
43 140 bpm, 8A / A minor, 2016-11-04, Trance,  0  100
44 138 bpm, 6A / G minor, 2016-10-28, Trance,  1  55
45 138 bpm, 4A / F minor, 2016-10-28, Trance,  0  20
46 138 bpm, 3A / Bb minor, 2016-10-07, Trance,  0  10
47 140 bpm, 4B / Ab major, 2016-10-07, Trance,  0  10
48 140 bpm, 8A / A minor, 2016-09-30, Trance,  0  15
49 138 bpm, 4A / F minor, 2016-09-30, Trance,  0  15
50 138 bpm, 4A / F minor, 2016-09-30, Trance,  0  30
51 138 bpm, 3A / Bb minor, 2016-09-30, Trance,  0  20
52 138 bpm, 9A / E minor, 2016-09-23, Trance,  1  10
53 138 bpm, 3A / Bb minor, 2016-09-16, Trance,  0  10
54 140 bpm, 8A / A minor, 2016-09-02, Trance,  7  1
55 138 bpm, 7A / D minor, 2016-09-02, Trance,  0  10
56 138 bpm, 4A / F minor, 2016-08-29, Trance,  5  2
1
57 138 bpm, 4A / F minor, 2016-08-29, Trance,  2  2
58 138 bpm, 4A / F minor, 2016-08-19, Trance,  1  39
59 138 bpm, 4A / F minor, 2016-08-19, Trance,  0  40
60 136 bpm, 4B / Ab major, 2016-08-12, Trance,  0  40
61 138 bpm, 8A / A minor, 2016-08-05, Trance,  5  18
62 140 bpm, 8A / A minor, 2016-07-22, Trance,  2  36
63 138 bpm, 7A / D minor, 2016-07-22, Trance,  0  36
64 138 bpm, 4A / F minor, 2016-07-15, Trance,  0  30
65 138 bpm, 4A / F minor, 2016-07-08, Trance,  0  30
66 138 bpm, 7A / D minor, 2016-07-01, Trance,  0  15
67 138 bpm, 7A / D minor, 2016-06-24, Trance,  0  100
68 138 bpm, 2B / F# major, 2016-06-24, Trance,  0  100
69 138 bpm, 8A / A minor, 2016-06-24, Trance,  0  100
70 138 bpm, 7A / D minor, 2016-06-17, Trance,  13  1
71 138 bpm, 4A / F minor, 2016-06-10, Trance,  0  25
72 138 bpm, 2B / F# major, 2016-06-10, Trance,  0  48
73 138 bpm, 3A / Bb minor, 2016-06-03, Trance,  0  15
74 138 bpm, 3A / Bb minor, 2016-05-27, Trance,  2  20
75 138 bpm, 2B / F# major, 2016-05-20, Trance,  1  10
76 138 bpm, 4A / F minor, 2016-05-13, Trance,  0  30
77 138 bpm, 2B / F# major, 2016-05-13, Trance,  0  40
78 138 bpm, 8A / A minor, 2016-04-29, Trance,  2  15
79 138 bpm, 9A / E minor, 2016-04-29, Trance,  0  20
80 138 bpm, 3A / Bb minor, 2016-04-29, Trance,  8  1
81 138 bpm, 4A / F minor, 2016-04-25, Trance,  4  2
82 138 bpm, 4A / F minor, 2016-04-25, Trance,  0  11
83 140 bpm, 12A / Db minor, 2016-04-18, Trance,  0  12
84 140 bpm, 11A / F# minor, 2016-04-11, Trance,  0  1
85 138 bpm, 8A / A minor, 2016-04-08, Trance,  0  50
86 138 bpm, 2B / F# major, 2016-04-01, Trance,  5  15
87 138 bpm, 5A / C minor, 2016-03-28, Trance,  5  2
88 138 bpm, 9A / E minor, 2016-03-25, Trance,  0  20
89 138 bpm, 2B / F# major, 2016-03-25, Trance,  23  1
90 138 bpm, 2A / Eb minor, 2016-03-25, Trance,  0  25
91 140 bpm, 8A / A minor, 2016-03-18, Trance,  0  21
92 138 bpm, 9A / E minor, 2016-03-18, Trance,  0  20
93 138 bpm, 8A / A minor, 2016-03-18, Trance,  15  1
94 138 bpm, 9A / E minor, 2016-03-04, Trance,  1  15
95 140 bpm, 4B / Ab major, 2016-02-26, Trance,  0  10
96 138 bpm, 8A / A minor, 2016-02-22, Trance,  0  2
97 140 bpm, 8A / A minor, 2016-02-22, Trance,  6  2
98 138 bpm, 9A / E minor, 2016-02-19, Trance,  1  21
99 138 bpm, 9A / E minor, 2016-02-08, Trance,  15  2
100 138 bpm, 9A / E minor, 2016-02-08, Trance,  0  2
Please wait...